| time (UTC) | temp F | wind direction | speed MPH | gust MPH | rain 1hr in | rain 24hr in | rain mn in | humidity % | barometer mb |
| 20260510072725 | 60 | 322 | 2.0 | 5.0 | 0.00 | 0.00 | 0.00 | 76 | 1011.8 |
| 20260510071803 | 60 | 318 | 2.0 | 5.0 | 0.00 | 0.00 | 0.00 | 76 | 1011.8 |
| 20260510070903 | 60 | 321 | 2.0 | 5.0 | 0.00 | 0.00 | 0.00 | 75 | 1011.7 |
| 20260510070004 | 60 | 311 | 2.0 | 5.0 | 0.00 | 0.00 | 0.00 | 74 | 1011.8 |
| 20260510065424 | 61 | 328 | 2.0 | 5.0 | 0.00 | 0.00 | 0.00 | 74 | 1011.8 |
| 20260510064503 | 61 | 320 | 1.0 | 5.0 | 0.00 | 0.00 | 0.00 | 73 | 1011.6 |
| 20260510063603 | 61 | 312 | 2.0 | 4.0 | 0.00 | 0.00 | 0.00 | 72 | 1011.6 |
| 20260510062703 | 62 | 292 | 2.0 | 4.0 | 0.00 | 0.00 | 0.00 | 71 | 1011.6 |
| 20260510061803 | 62 | 298 | 1.0 | 3.0 | 0.00 | 0.00 | 0.00 | 71 | 1011.6 |
| 20260510060924 | 62 | 283 | 1.0 | 3.0 | 0.00 | 0.00 | 0.00 | 70 | 1011.5 |
| 20260510060003 | 63 | 281 | 1.0 | 3.0 | 0.00 | 0.00 | 0.00 | 69 | 1011.4 |
| 20260510055403 | 63 | 263 | 1.0 | 3.0 | 0.00 | 0.00 | 0.00 | 69 | 1011.3 |
| 20260510054503 | 63 | 254 | 1.0 | 4.0 | 0.00 | 0.00 | 0.00 | 68 | 1011.4 |
| 20260510053603 | 64 | 271 | 1.0 | 2.0 | 0.00 | 0.00 | 0.00 | 67 | 1011.3 |
| 20260510052703 | 64 | 304 | 1.0 | 3.0 | 0.00 | 0.00 | 0.00 | 66 | 1011.3 |
| 20260510051803 | 65 | 277 | 1.0 | 6.0 | 0.00 | 0.00 | 0.00 | 65 | 1011.2 |
| 20260510050903 | 65 | 245 | 1.0 | 3.0 | 0.00 | 0.00 | 0.00 | 64 | 1011.3 |
| 20260510050003 | 66 | 249 | 1.0 | 4.0 | 0.00 | 0.00 | 0.00 | 63 | 1011.4 |
| 20260510045403 | 66 | 248 | 2.0 | 4.0 | 0.00 | 0.00 | 0.00 | 62 | 1011.4 |
| 20260510044503 | 66 | 254 | 2.0 | 4.0 | 0.00 | 0.00 | 0.00 | 61 | 1011.3 |
| 20260510043603 | 67 | 262 | 2.0 | 5.0 | 0.00 | 0.00 | 0.00 | 61 | 1011.3 |
| 20260510042703 | 68 | 245 | 2.0 | 5.0 | 0.00 | 0.00 | 0.00 | 61 | 1011.4 |
| 20260510041803 | 68 | 244 | 2.0 | 4.0 | 0.00 | 0.00 | 0.00 | 59 | 1011.2 |
| 20260510040903 | 69 | 248 | 1.0 | 4.0 | 0.00 | 0.00 | 0.00 | 57 | 1011.2 |
| 20260510040006 | 69 | 247 | 1.0 | 6.0 | 0.00 | 0.00 | 0.00 | 57 | 1011.0 |
| 20260510035403 | 70 | 248 | 2.0 | 6.0 | 0.00 | 0.00 | 0.00 | 57 | 1010.9 |
| 20260510034503 | 70 | 248 | 2.0 | 4.0 | 0.00 | 0.00 | 0.00 | 57 | 1010.8 |
| 20260510033603 | 71 | 245 | 2.0 | 4.0 | 0.00 | 0.00 | 0.00 | 56 | 1010.7 |
| 20260510032703 | 72 | 248 | 2.0 | 5.0 | 0.00 | 0.00 | 0.00 | 55 | 1010.6 |
| 20260510031803 | 73 | 242 | 2.0 | 5.0 | 0.00 | 0.00 | 0.00 | 54 | 1010.6 |
| 20260510030903 | 74 | 245 | 2.0 | 4.0 | 0.00 | 0.00 | 0.00 | 53 | 1010.4 |
| 20260510030003 | 75 | 237 | 2.0 | 9.0 | 0.00 | 0.00 | 0.00 | 50 | 1010.3 |
| 20260510025403 | 76 | 243 | 2.0 | 9.0 | 0.00 | 0.00 | 0.00 | 49 | 1010.3 |
| 20260510024503 | 77 | 255 | 3.0 | 10.0 | 0.00 | 0.00 | 0.00 | 49 | 1010.3 |
| 20260510023603 | 78 | 254 | 3.0 | 9.0 | 0.00 | 0.00 | 0.00 | 48 | 1010.3 |
| 20260510022703 | 79 | 246 | 3.0 | 6.0 | 0.00 | 0.00 | 0.00 | 50 | 1010.3 |
| 20260510021803 | 79 | 250 | 3.0 | 8.0 | 0.00 | 0.00 | 0.00 | 49 | 1010.3 |
| 20260510020903 | 80 | 253 | 3.0 | 8.0 | 0.00 | 0.00 | 0.00 | 47 | 1010.4 |
| 20260510020003 | 81 | 250 | 3.0 | 12.0 | 0.00 | 0.00 | 0.00 | 48 | 1010.3 |
| 20260510015403 | 82 | 251 | 3.0 | 10.0 | 0.00 | 0.00 | 0.00 | 47 | 1010.3 |
| 20260510014503 | 82 | 260 | 3.0 | 9.0 | 0.00 | 0.00 | 0.00 | 47 | 1010.3 |
| 20260510013603 | 83 | 253 | 4.0 | 10.0 | 0.00 | 0.00 | 0.00 | 46 | 1010.3 |
| 20260510012703 | 84 | 255 | 4.0 | 10.0 | 0.00 | 0.00 | 0.00 | 45 | 1010.3 |
| 20260510011803 | 85 | 263 | 3.0 | 9.0 | 0.00 | 0.00 | 0.00 | 45 | 1010.3 |
| 20260510010903 | 85 | 248 | 3.0 | 10.0 | 0.00 | 0.00 | 0.00 | 45 | 1010.3 |
| 20260510010003 | 86 | 257 | 3.0 | 11.0 | 0.00 | 0.00 | 0.00 | 44 | 1010.2 |
| 20260510005403 | 86 | 264 | 4.0 | 11.0 | 0.00 | 0.00 | 0.00 | 44 | 1010.3 |
| 20260510004503 | 87 | 255 | 4.0 | 14.0 | 0.00 | 0.00 | 0.00 | 42 | 1010.3 |
| 20260510003603 | 88 | 261 | 4.0 | 13.0 | 0.00 | 0.00 | 0.00 | 41 | 1010.2 |
| 20260510002703 | 90 | 286 | 4.0 | 10.0 | 0.00 | 0.00 | 0.00 | 41 | 1010.2 |
| 20260510001803 | 90 | 322 | 4.0 | 10.0 | 0.00 | 0.00 | 0.00 | 45 | 1010.1 |
| 20260510000903 | 90 | 326 | 7.0 | 12.0 | 0.00 | 0.00 | 0.00 | 43 | 1010.1 |
| 20260510000003 | 90 | 324 | 4.0 | 11.0 | 0.00 | 0.00 | 0.00 | 42 | 1010.1 |
| 20260509235403 | 90 | 318 | 5.0 | 12.0 | 0.00 | 0.00 | 0.00 | 43 | 1010.1 |
| 20260509234503 | 90 | 321 | 5.0 | 13.0 | 0.00 | 0.00 | 0.00 | 41 | 1010.1 |
| 20260509233603 | 91 | 320 | 6.0 | 13.0 | 0.00 | 0.00 | 0.00 | 41 | 1010.2 |
| 20260509232703 | 91 | 324 | 6.0 | 12.0 | 0.00 | 0.00 | 0.00 | 41 | 1010.2 |
| 20260509231803 | 91 | 312 | 6.0 | 12.0 | 0.00 | 0.00 | 0.00 | 41 | 1010.2 |
| 20260509230903 | 90 | 333 | 6.0 | 13.0 | 0.00 | 0.00 | 0.00 | 40 | 1010.4 |
| 20260509230003 | 90 | 336 | 6.0 | 11.0 | 0.00 | 0.00 | 0.00 | 40 | 1010.3 |
| 20260509225403 | 90 | 332 | 7.0 | 13.0 | 0.00 | 0.00 | 0.00 | 38 | 1010.6 |
| 20260509224503 | 90 | 321 | 6.0 | 13.0 | 0.00 | 0.00 | 0.00 | 38 | 1010.6 |
| 20260509223603 | 90 | 325 | 5.0 | 9.0 | 0.00 | 0.00 | 0.00 | 38 | 1010.7 |
| 20260509222703 | 90 | 317 | 4.0 | 10.0 | 0.00 | 0.00 | 0.00 | 38 | 1011.0 |
| 20260509221803 | 90 | 320 | 5.0 | 13.0 | 0.00 | 0.00 | 0.00 | 39 | 1011.1 |
| 20260509220903 | 90 | 319 | 6.0 | 13.0 | 0.00 | 0.00 | 0.00 | 37 | 1011.2 |
| 20260509220024 | 89 | 328 | 6.0 | 13.0 | 0.00 | 0.00 | 0.00 | 38 | 1011.3 |
| 20260509215424 | 89 | 327 | 6.0 | 13.0 | 0.00 | 0.00 | 0.00 | 38 | 1011.3 |
| 20260509214503 | 89 | 330 | 5.0 | 12.0 | 0.00 | 0.00 | 0.00 | 39 | 1011.4 |
| 20260509213603 | 89 | 320 | 5.0 | 11.0 | 0.00 | 0.00 | 0.00 | 40 | 1011.6 |
| 20260509212703 | 89 | 316 | 5.0 | 11.0 | 0.00 | 0.00 | 0.00 | 41 | 1011.6 |
| 20260509211803 | 88 | 320 | 5.0 | 12.0 | 0.00 | 0.00 | 0.00 | 42 | 1011.7 |
| 20260509210903 | 88 | 318 | 4.0 | 9.0 | 0.00 | 0.00 | 0.00 | 42 | 1011.8 |
| 20260509210003 | 87 | 330 | 5.0 | 11.0 | 0.00 | 0.00 | 0.00 | 42 | 1012.0 |
| 20260509205403 | 87 | 330 | 5.0 | 11.0 | 0.00 | 0.00 | 0.00 | 42 | 1012.0 |
| 20260509204503 | 87 | 321 | 5.0 | 9.0 | 0.00 | 0.00 | 0.00 | 42 | 1012.0 |
| 20260509203603 | 87 | 323 | 5.0 | 12.0 | 0.00 | 0.00 | 0.00 | 45 | 1012.1 |
| 20260509202703 | 86 | 325 | 5.0 | 13.0 | 0.00 | 0.00 | 0.00 | 45 | 1012.2 |
| 20260509201803 | 86 | 313 | 6.0 | 10.0 | 0.00 | 0.00 | 0.00 | 47 | 1012.4 |
| 20260509200903 | 86 | 323 | 6.0 | 13.0 | 0.00 | 0.00 | 0.00 | 47 | 1012.4 |
| 20260509200003 | 85 | 320 | 5.0 | 11.0 | 0.00 | 0.00 | 0.00 | 47 | 1012.5 |
| 20260509195403 | 85 | 323 | 6.0 | 11.0 | 0.00 | 0.00 | 0.00 | 47 | 1012.5 |
| 20260509194503 | 85 | 317 | 4.0 | 9.0 | 0.00 | 0.00 | 0.00 | 47 | 1012.7 |
| 20260509193603 | 84 | 318 | 5.0 | 10.0 | 0.00 | 0.00 | 0.00 | 48 | 1012.8 |
| 20260509192703 | 83 | 319 | 4.0 | 10.0 | 0.00 | 0.00 | 0.00 | 51 | 1013.0 |
| 20260509191803 | 83 | 319 | 5.0 | 10.0 | 0.00 | 0.00 | 0.00 | 50 | 1013.2 |
| 20260509190903 | 82 | 321 | 4.0 | 11.0 | 0.00 | 0.00 | 0.00 | 52 | 1013.1 |
| 20260509190003 | 82 | 323 | 4.0 | 9.0 | 0.00 | 0.00 | 0.00 | 53 | 1013.2 |
| 20260509185403 | 81 | 310 | 5.0 | 10.0 | 0.00 | 0.00 | 0.00 | 53 | 1013.3 |
| 20260509184503 | 80 | 322 | 5.0 | 10.0 | 0.00 | 0.00 | 0.00 | 54 | 1013.4 |
| 20260509183603 | 80 | 319 | 5.0 | 10.0 | 0.00 | 0.00 | 0.00 | 55 | 1013.4 |
| 20260509182703 | 80 | 314 | 4.0 | 12.0 | 0.00 | 0.00 | 0.00 | 56 | 1013.3 |
| 20260509181803 | 79 | 307 | 4.0 | 10.0 | 0.00 | 0.00 | 0.00 | 57 | 1013.5 |
| 20260509180903 | 78 | 312 | 4.0 | 11.0 | 0.00 | 0.00 | 0.00 | 56 | 1013.6 |
| 20260509180024 | 78 | 301 | 4.0 | 8.0 | 0.00 | 0.00 | 0.00 | 56 | 1013.6 |
| 20260509175403 | 78 | 304 | 4.0 | 9.0 | 0.00 | 0.00 | 0.00 | 56 | 1013.8 |
| 20260509174503 | 77 | 310 | 4.0 | 9.0 | 0.00 | 0.00 | 0.00 | 55 | 1013.9 |
| 20260509173624 | 77 | 307 | 3.0 | 9.0 | 0.00 | 0.00 | 0.00 | 57 | 1013.7 |
| 20260509172703 | 76 | 297 | 3.0 | 8.0 | 0.00 | 0.00 | 0.00 | 56 | 1013.7 |
| 20260509171803 | 76 | 306 | 4.0 | 8.0 | 0.00 | 0.00 | 0.00 | 57 | 1013.7 |
| 20260509170903 | 74 | 313 | 3.0 | 8.0 | 0.00 | 0.00 | 0.00 | 58 | 1013.7 |
| 20260509170003 | 74 | 281 | 3.0 | 9.0 | 0.00 | 0.00 | 0.00 | 60 | 1013.8 |
| 20260509165403 | 73 | 260 | 3.0 | 5.0 | 0.00 | 0.00 | 0.00 | 59 | 1013.8 |
| 20260509164506 | 73 | 301 | 2.0 | 7.0 | 0.00 | 0.00 | 0.00 | 60 | 1013.9 |
| 20260509163624 | 72 | 299 | 2.0 | 4.0 | 0.00 | 0.00 | 0.00 | 62 | 1013.9 |
| 20260509162724 | 71 | 311 | 3.0 | 7.0 | 0.00 | 0.00 | 0.00 | 64 | 1013.9 |
| 20260509161824 | 70 | 328 | 2.0 | 5.0 | 0.00 | 0.00 | 0.00 | 65 | 1013.9 |
| 20260509160924 | 69 | 292 | 2.0 | 6.0 | 0.00 | 0.00 | 0.00 | 66 | 1013.8 |
| 20260509160026 | 69 | 327 | 2.0 | 4.0 | 0.00 | 0.00 | 0.00 | 68 | 1014.0 |
| 20260509155403 | 68 | 353 | 2.0 | 4.0 | 0.00 | 0.00 | 0.00 | 69 | 1014.0 |
| 20260509154503 | 68 | 30 | 2.0 | 4.0 | 0.00 | 0.00 | 0.00 | 70 | 1013.9 |
| 20260509153603 | 67 | 30 | 1.0 | 4.0 | 0.00 | 0.00 | 0.00 | 72 | 1013.9 |
| 20260509152703 | 66 | 30 | 2.0 | 3.0 | 0.00 | 0.00 | 0.00 | 74 | 1013.9 |
| 20260509151824 | 65 | 33 | 2.0 | 4.0 | 0.00 | 0.00 | 0.00 | 75 | 1014.0 |
| 20260509150924 | 64 | 35 | 1.0 | 4.0 | 0.00 | 0.00 | 0.00 | 76 | 1014.1 |
| 20260509150024 | 63 | 280 | 2.0 | 4.0 | 0.00 | 0.00 | 0.00 | 77 | 1014.2 |
| 20260509145424 | 63 | 254 | 2.0 | 4.0 | 0.00 | 0.00 | 0.00 | 78 | 1014.1 |
| 20260509144524 | 62 | 236 | 2.0 | 4.0 | 0.00 | 0.00 | 0.00 | 79 | 1014.0 |
| 20260509143626 | 61 | 219 | 1.0 | 4.0 | 0.00 | 0.00 | 0.00 | 81 | 1014.0 |
| 20260509142724 | 60 | 181 | 1.0 | 2.0 | 0.00 | 0.00 | 0.00 | 83 | 1013.9 |
| 20260509141824 | 58 | 180 | 1.0 | 2.0 | 0.00 | 0.00 | 0.00 | 85 | 1013.9 |
| 20260509140924 | 57 | 279 | 1.0 | 3.0 | 0.00 | 0.00 | 0.00 | 86 | 1013.9 |
| 20260509140024 | 56 | 290 | 1.0 | 3.0 | 0.00 | 0.00 | 0.00 | 86 | 1013.8 |
| 20260509135424 | 55 | 290 | 1.0 | 4.0 | 0.00 | 0.00 | 0.00 | 87 | 1013.7 |
| 20260509134503 | 54 | 290 | 1.0 | 4.0 | 0.00 | 0.00 | 0.00 | 87 | 1013.6 |
| 20260509133603 | 54 | 292 | 0.0 | 1.0 | 0.00 | 0.00 | 0.00 | 86 | 1013.6 |
| 20260509132703 | 54 | 294 | 0.0 | 1.0 | 0.00 | 0.00 | 0.00 | 85 | 1013.6 |
| 20260509131803 | 54 | 295 | 1.0 | 2.0 | 0.00 | 0.00 | 0.00 | 85 | 1013.5 |
| 20260509130903 | 54 | 294 | 0.0 | 2.0 | 0.00 | 0.00 | 0.00 | 84 | 1013.4 |
| 20260509130024 | 54 | 294 | 0.0 | 1.0 | 0.00 | 0.00 | 0.00 | 83 | 1013.2 |
| 20260509125424 | 54 | 293 | 0.0 | 2.0 | 0.00 | 0.00 | 0.00 | 83 | 1013.2 |
| 20260509124524 | 55 | 296 | 1.0 | 3.0 | 0.00 | 0.00 | 0.00 | 83 | 1013.2 |
| 20260509123624 | 55 | 277 | 1.0 | 2.0 | 0.00 | 0.00 | 0.00 | 83 | 1013.3 |
| 20260509122724 | 55 | 258 | 1.0 | 2.0 | 0.00 | 0.00 | 0.00 | 84 | 1013.2 |
| 20260509121803 | 54 | 269 | 1.0 | 4.0 | 0.00 | 0.00 | 0.00 | 85 | 1013.1 |
| 20260509120924 | 54 | 287 | 1.0 | 2.0 | 0.00 | 0.00 | 0.00 | 85 | 1013.1 |
| 20260509120024 | 54 | 294 | 1.0 | 4.0 | 0.00 | 0.00 | 0.00 | 85 | 1013.2 |
| 20260509115424 | 54 | 303 | 1.0 | 2.0 | 0.00 | 0.00 | 0.00 | 84 | 1013.1 |
| 20260509114524 | 54 | 288 | 1.0 | 2.0 | 0.00 | 0.00 | 0.00 | 84 | 1013.1 |
| 20260509113624 | 54 | 293 | 1.0 | 2.0 | 0.00 | 0.00 | 0.00 | 84 | 1013.1 |
| 20260509112703 | 54 | 310 | 1.0 | 2.0 | 0.00 | 0.00 | 0.00 | 83 | 1013.1 |
| 20260509111803 | 55 | 301 | 1.0 | 2.0 | 0.00 | 0.00 | 0.00 | 83 | 1013.1 |
| 20260509110903 | 55 | 322 | 1.0 | 2.0 | 0.00 | 0.00 | 0.00 | 83 | 1013.2 |
| 20260509110003 | 55 | 315 | 1.0 | 2.0 | 0.00 | 0.00 | 0.00 | 83 | 1013.3 |
| 20260509105403 | 55 | 311 | 1.0 | 2.0 | 0.00 | 0.00 | 0.00 | 83 | 1013.2 |
| 20260509104503 | 55 | 319 | 1.0 | 2.0 | 0.00 | 0.00 | 0.00 | 83 | 1013.2 |
| 20260509103603 | 55 | 328 | 1.0 | 2.0 | 0.00 | 0.00 | 0.00 | 82 | 1013.3 |
| 20260509102724 | 55 | 322 | 0.0 | 2.0 | 0.00 | 0.00 | 0.00 | 82 | 1013.4 |
| 20260509101803 | 55 | 326 | 1.0 | 2.0 | 0.00 | 0.00 | 0.00 | 85 | 1013.4 |
| 20260509100903 | 56 | 321 | 1.0 | 3.0 | 0.00 | 0.00 | 0.00 | 82 | 1013.5 |
| 20260509100004 | 56 | 299 | 1.0 | 2.0 | 0.00 | 0.00 | 0.00 | 82 | 1013.5 |
| 20260509095424 | 56 | 307 | 1.0 | 2.0 | 0.00 | 0.00 | 0.00 | 82 | 1013.6 |
| 20260509094503 | 56 | 333 | 1.0 | 2.0 | 0.00 | 0.00 | 0.00 | 82 | 1013.6 |
| 20260509093604 | 56 | 323 | 1.0 | 2.0 | 0.00 | 0.00 | 0.00 | 81 | 1013.6 |
| 20260509092703 | 56 | 321 | 1.0 | 2.0 | 0.00 | 0.00 | 0.00 | 81 | 1013.6 |
| 20260509091803 | 56 | 307 | 1.0 | 3.0 | 0.00 | 0.00 | 0.00 | 81 | 1013.7 |
| 20260509090903 | 56 | 313 | 1.0 | 2.0 | 0.00 | 0.00 | 0.00 | 80 | 1013.7 |
| 20260509090024 | 57 | 316 | 1.0 | 2.0 | 0.00 | 0.00 | 0.00 | 80 | 1013.7 |
| 20260509085403 | 57 | 313 | 1.0 | 2.0 | 0.00 | 0.00 | 0.00 | 80 | 1013.7 |
| 20260509084503 | 57 | 324 | 1.0 | 3.0 | 0.00 | 0.00 | 0.00 | 80 | 1013.7 |
| 20260509083603 | 57 | 328 | 1.0 | 3.0 | 0.00 | 0.00 | 0.00 | 79 | 1013.8 |
| 20260509082703 | 57 | 314 | 1.0 | 2.0 | 0.00 | 0.00 | 0.00 | 79 | 1013.9 |
| 20260509081803 | 58 | 307 | 1.0 | 2.0 | 0.00 | 0.00 | 0.00 | 78 | 1013.7 |
| 20260509080903 | 58 | 311 | 1.0 | 2.0 | 0.00 | 0.00 | 0.00 | 77 | 1013.6 |
| 20260509080024 | 58 | 316 | 1.0 | 2.0 | 0.00 | 0.00 | 0.00 | 77 | 1013.6 |
| 20260509075425 | 58 | 305 | 1.0 | 2.0 | 0.00 | 0.00 | 0.00 | 76 | 1013.6 |
| 20260509074524 | 59 | 313 | 1.0 | 3.0 | 0.00 | 0.00 | 0.00 | 76 | 1013.7 |
| 20260509073603 | 59 | 319 | 1.0 | 3.0 | 0.00 | 0.00 | 0.00 | 75 | 1013.7 |